Showing default

COSMOS 209, 3158

Orbit data source: Space-Track

COSMOS 209, 3158 is a payload satellite owned by TSKBM (CIS) in LEO that was launched on Fri, 22 Mar 1968 UTC via a TSIKLON-2A launch vehicle from the Tyuratam Missile And Space Complex (TTMTR). Payload-class satellites include a variety of spacecraft equipped with specific instruments for various scientific and technological missions. These include communications satellites like Starlink; space stations such as the ISS; scientific satellites like the Hubble; Earth observation satellites from companies like Planet Labs, Umbra, and HawkEye 360; GPS; miniature CubeSats for education and research; and military/defense satellites.

Loading next visibility...
Identifier
3158, 1968-023A
Orbit
LEO
Country
Flag of CISCIS
Related business
Manufacturer
TSKBM/KB1
Mission
Spacecraft
Bus & Motor
US-A REACTOR, Unknown motor
Mass
3,800 kg wet, 1,140 kg dry
Launch date (UTC)
1968-03-22 (58 years ago)
Launch vehicle
TSIKLON-2A
Launch site
Tyuratam Missile And Space Complex (TTMTR)
Object type
Payload
Rocket body
Debris
Shape & HBR
Unknown
Radar Cross Section
Large (>1 m²)

Expand to show TLE details & history
Last TLE update: 6 hours ago

TLE from 6 hours ago
0 COSMOS 209
1  3158U 68023A   25354.13036603 -.00000056  00000-0  23156-4 0  9990
2  3158  65.3327 303.4549 0047694 303.7137  55.9391 13.97919661945986
Epoch: 2025-12-20T03:07Z
TLE epoch observation values (Epoch: 2025-12-20T03:07:43.624Z)
Latitude
-0.00003°
Longitude
167.56153°
Altitude
883.644 km
Speed
7.421 km/s
True Right ascension
20h 13m 49s
True Declination
0° 00' 00"
Sunlit
Object was in daylight at epoch
Visualization orbit readout
Latitude
Unknown
Longitude
Unknown
Altitude
Unknown
Speed
Unknown
Apparent Right ascension
Unknown
Apparent Declination
Unknown
Sunlit
N/A
Visualization observer readout
Local Sidereal Time
07:56:53
Azimuth
Unknown
Elevation
Unknown
Doppler factor
Unknown
Orbital elements
Apogee altitude
934.278 km
Perigee altitude
864.858 km
Semi-major axis
7,277.705 km
Eccentricity
0.00477
Inclination
65.3327°
RAAN
303.4549°
Arg. of periapsis
303.7137°
True anomaly
56.39338°
Mean anomaly
55.9391°
Eccentric anomaly
56.16609°
Mean motion
3.49584 °/min
Orbital period
102.98 mins
BSTAR
0.000023156
Loading maneuver chart data...
Computing Atmospheric mass density...
Loading historical data...
Loading historical data...
Loading historical data...
Loading historical data...
Loading historical data...
Loading historical data...
Loading historical data...

Documentation

Showing up to 5 results
|